Hundvaag 1 weather for Jun 1999
Month no. 144
Obs.
Da.
Temp. Dew Point Precip. Wind
Speed
Wind gusts Cloud cover Press. Humidity Wind dir. Sunny OPT
01.06.1999 9,0   0,0     1       1  
02.06.1999 10,3   0,0     0       1  
03.06.1999 11,2   0,0     0          
04.06.1999 11,0   4,0     0          
05.06.1999 12,4   4,0     0       1  
06.06.1999 10,7   1,0     1       1  
07.06.1999 10,6   16,0     0       1  
08.06.1999 12,6   2,0     0          
09.06.1999 10,9   20,0     0       1  
10.06.1999 9,7   5,0     0       1  
11.06.1999 12,5   0,0     8       1  
12.06.1999 12,5   2,0     3          
13.06.1999 12,1   0,0     1       1  
14.06.1999 12,0   0,0     0       1  
15.06.1999 13,5   0,0     0       1  
16.06.1999 11,5   0,0     4       1  
17.06.1999 11,7   15,0     0       1  
18.06.1999 10,1   12,0     10       1  
19.06.1999 13,9   3,0     0          
20.06.1999 14,0   51,0     6       1  
21.06.1999 9,1   1,0     7       1  
22.06.1999 9,5   1,0     7       1  
23.06.1999 10,7   0,0     1       1  
24.06.1999 10,6   0,0     7       1  
25.06.1999 10,5   0,0     10       1  
26.06.1999 11,8   0,0     8       1  
27.06.1999 18,6   0,0     1       1  
28.06.1999 17,4   0,0     1          
29.06.1999 11,2   17,0     9       1  
30.06.1999 12,7   1,0     8          
                       
Avrg/Sum 11,8   155,0     3,1       23